Temp
12 12 12 12 12 12 12 12 13 12 11 11 11 11 11 11 11 11 11 11 11 10 10 9 9 9 9 9 9 9 9 9 9 9 9 9 9 9 9 9 9 9 9 9 10 10 10 10 10 10 10 10 10 10 11 11 10 10 10 10 10 9 9
12 12 13 12 12 12 12 12 12 12 12 12 12 12 12 11 11 11 11 11 11 11 10 10 9 9 9 9 9 9 9 9 9 9 9 9 9 9 9 10 10 9 9 9 10 10 10 10 10 10 10 10 10 10 11 10 10 10 10 10 9 9 9
13 12 12 12 12 12 12 12 12 12 12 12 12 12 12 12 12 12 12 12 11 11 11 10 10 9 9 9 9 9 9 9 9 9 9 9 10 10 10 10 9 9 9 9 10 10 10 10 10 10 10 10 11 10 10 10 10 10 10 10 10 9 9
12 12 12 12 12 12 12 12 12 12 12 12 12 12 12 12 12 12 12 12 12 11 11 10 10 10 10 10 10 10 10 10 10 10 9 9 10 9 9 9 9 9 10 10 10 10 9 9 9 10 11 11 10 10 10 10 10 10 10 10 10 10 10
12 12 12 12 12 12 12 12 12 12 12 12 12 12 12 12 12 12 12 12 12 11 11 11 10 10 10 10 10 10 10 10 10 10 10 9 9 9 9 9 9 10 10 10 9 9 9 9 10 10 10 10 9 9 10 10 10 10 10 10 10 10 10
12 12 12 12 12 12 12 12 12 12 12 12 13 13 12 13 13 12 12 12 12 11 11 11 10 10 10 10 10 10 10 10 10 9 9 9 9 9 9 9 10 10 10 10 10 9 10 10 9 9 9 9 9 9 9 9 9 9 9 9 10 10 10
12 12 12 12 12 12 12 12 12 12 12 13 13 13 13 13 12 12 12 12 11 11 11 11 10 10 10 10 10 10 10 9 9 9 9 9 9 9 9 9 9 10 10 10 9 9 9 9 9 9 9 9 9 9 8 8 8 8 8 8 9 9 9
12 12 12 12 12 12 12 13 12 12 12 13 13 13 13 12 12 12 12 12 11 11 11 10 10 10 10 9 9 10 9 9 9 9 9 9 9 9 9 9 9 9 9 9 9 8 8 8 8 8 8 8 8 8 8 8 8 7 7 7 7 8 8
12 12 12 12 12 13 13 12 12 12 12 13 13 13 12 12 12 12 11 11 11 11 10 10 10 10 9 9 9 9 9 8 9 9 9 9 9 9 9 9 9 9 8 8 8 8 8 8 8 8 7 7 7 7 7 7 7 7 7 6 7 7 7
13 12 12 12 13 13 13 12 12 12 12 12 12 12 12 11 11 11 11 11 10 10 10 10 10 9 9 9 9 9 8 8 9 9 9 8 8 8 8 8 8 8 8 8 8 8 8 8 7 7 7 7 7 7 7 7 7 6 6 6 6 6 6
13 13 13 13 13 13 13 12 12 12 12 12 12 11 11 11 11 11 11 10 10 10 10 10 9 9 9 9 9 8 8 8 8 8 8 8 8 8 8 8 8 8 8 8 8 8 8 8 7 7 7 7 6 6 6 6 6 6 6 6 6 7 7
14 13 13 13 13 13 13 12 12 12 12 12 11 11 11 11 11 11 10 10 10 10 9 9 9 9 9 8 8 8 8 8 8 8 8 8 8 8 8 8 8 8 8 8 8 8 8 8 7 7 7 6 6 6 6 6 6 6 6 6 7 7 7
15 14 14 13 13 13 12 12 12 12 12 11 11 10 10 10 10 10 10 10 10 9 9 9 9 9 9 8 8 8 8 8 8 8 8 8 8 8 8 7 7 7 7 7 7 7 7 7 7 7 6 6 6 6 6 6 6 6 6 7 7 7 7
16 15 14 14 13 13 12 12 12 11 11 11 10 10 10 10 10 10 10 10 10 9 9 9 9 9 9 8 8 8 8 8 8 8 8 8 7 7 7 7 7 7 7 7 7 7 7 7 7 7 6 6 6 6 6 6 6 6 7 7 6 7 7
16 16 15 14 14 13 12 12 11 11 11 11 10 10 10 10 10 10 10 10 9 9 9 9 9 9 9 8 8 8 8 8 8 7 7 7 7 7 7 7 7 7 7 7 7 7 7 7 7 7 6 6 6 6 6 7 7 7 7 7 7 7 8
15 15 15 15 14 13 12 11 11 11 11 11 10 10 10 10 10 10 10 9 9 9 9 9 9 9 8 8 8 8 8 8 7 7 7 7 7 7 7 7 7 7 7 7 7 7 7 7 7 7 7 7 7 7 7 7 7 7 8 8 7 7 8
15 14 14 14 14 13 12 11 10 10 10 11 10 10 10 10 10 10 10 9 9 9 9 9 9 9 8 8 8 8 8 7 7 7 6 6 7 7 6 6 6 7 7 7 7 7 7 7 7 7 7 7 7 7 7 7 7 8 8 8 8 8 8
14 14 14 13 13 12 12 11 10 10 11 11 11 11 11 10 10 10 10 10 10 9 9 9 9 9 8 8 8 8 8 7 7 7 7 6 6 6 6 6 6 6 6 7 7 7 7 7 7 7 7 7 7 7 7 7 7 7 8 8 8 8 8
14 13 13 13 13 12 12 11 11 11 11 11 11 11 11 11 10 10 10 10 10 10 9 9 9 9 8 8 8 8 8 7 7 7 7 6 6 6 6 6 6 6 6 6 6 7 6 6 6 6 7 7 7 7 7 7 7 7 8 8 8 8 8
14 13 13 12 12 12 11 11 11 11 11 11 10 11 11 11 11 11 10 10 10 10 9 9 9 9 8 8 7 7 7 7 7 7 6 7 6 6 6 6 6 6 6 6 6 6 6 6 7 7 7 7 7 7 7 7 7 8 8 8 7 7 7
14 13 12 12 12 11 11 11 11 11 11 11 10 10 11 11 11 10 10 10 10 10 10 10 10 9 9 8 7 7 7 7 7 6 7 7 7 6 6 6 6 6 6 6 6 7 7 7 7 7 7 7 7 7 7 7 7 7 7 7 7 7 7
13 13 12 12 12 11 11 11 11 11 11 11 11 11 11 11 10 10 10 10 10 10 10 10 9 9 8 8 7 7 7 7 7 7 7 7 7 6 6 6 6 6 6 6 6 7 7 7 7 7 7 7 7 7 7 7 7 7 7 7 7 7 7
13 12 12 11 11 11 11 11 11 11 11 11 11 11 11 11 10 10 10 10 10 10 10 10 9 9 8 8 8 8 8 7 7 7 7 7 7 6 6 6 6 6 6 6 6 7 7 7 7 7 7 7 7 7 7 7 7 7 7 7 7 7 7
12 12 12 12 12 11 11 11 11 11 11 11 11 11 11 11 10 10 10 10 10 10 10 10 10 9 9 9 9 9 8 7 7 7 7 7 6 6 6 6 6 6 6 7 7 7 7 7 7 7 7 7 6 6 6 6 6 6 6 6 7 7 7
12 12 12 12 12 11 11 11 11 11 11 11 11 11 11 11 11 11 11 11 10 10 10 10 10 9 9 9 9 9 8 8 7 8 7 6 6 6 6 6 6 6 7 7 7 7 7 7 7 6 6 6 6 6 6 6 6 6 6 6 6 7 7
12 12 12 12 12 11 11 11 11 11 11 11 11 11 11 11 11 11 11 11 10 10 10 10 10 9 9 9 9 8 8 7 7 7 6 6 6 6 6 6 6 7 7 7 7 7 7 6 6 6 6 6 6 6 6 6 6 6 6 6 6 6 6
12 12 12 12 11 11 11 11 11 11 11 11 11 11 11 11 11 11 11 11 10 10 10 10 10 9 9 9 8 8 8 7 7 7 6 6 6 6 6 6 6 6 7 7 7 7 6 6 6 6 6 6 6 7 7 7 6 6 6 6 6 6 6
12 12 12 12 12 11 11 11 11 11 11 11 11 11 11 11 11 11 11 10 10 10 10 10 9 9 9 9 8 8 8 7 7 6 6 6 6 6 6 6 6 6 7 7 7 6 6 6 6 7 7 7 7 7 7 7 6 6 6 6 6 6 6
12 12 12 12 11 11 11 11 11 11 11 11 11 11 11 11 10 10 10 10 10 10 10 9 9 9 9 8 8 8 8 7 7 7 7 6 6 6 6 6 6 7 7 7 7 7 6 7 7 7 7 7 7 7 7 7 6 6 6 6 6 6 5
12 11 11 11 11 11 11 11 11 11 11 11 10 10 10 10 10 10 10 10 10 10 10 9 9 9 9 9 9 9 8 7 7 7 6 6 6 7 7 7 7 7 7 7 7 6 7 7 7 7 7 7 7 7 6 6 6 6 5 5 5 5 4
12 11 11 11 11 10 10 10 11 11 11 11 11 10 10 10 10 10 10 9 10 10 9 9 9 9 9 9 9 8 7 7 7 6 6 7 7 7 7 7 7 7 7 7 6 6 6 6 6 6 6 6 6 6 6 5 5 5 4 4 4 3 3
11 11 11 11 11 10 10 11 11 11 11 11 11 11 10 10 10 10 10 10 10 9 9 9 9 9 9 9 8 7 7 7 7 7 7 7 7 7 7 7 7 7 7 6 6 6 6 6 6 6 6 6 6 6 5 5 4 4 3 3 3 3 3
11 11 11 11 11 11 11 11 11 11 11 11 11 11 10 10 10 9 9 9 9 9 9 9 9 9 9 8 8 7 7 7 7 7 7 7 7 7 7 7 7 6 6 6 6 6 6 6 5 5 5 6 6 5 5 4 3 3 3 3 3 3 3
11 11 11 11 11 11 11 11 11 11 11 11 11 10 10 10 10 9 9 9 9 9 9 9 9 9 8 8 7 7 7 7 7 6 6 6 6 6 6 6 6 6 6 6 6 6 6 5 5 5 6 6 5 5 4 3 3 3 3 3 3 3 3
11 11 11 11 11 11 11 11 11 11 11 11 10 10 10 10 10 9 9 9 9 9 8 8 8 8 8 7 7 7 6 6 6 6 6 6 6 6 6 6 6 6 6 6 6 5 5 5 5 6 6 5 4 3 3 3 3 3 3 2 2 2 2
11 11 11 11 11 11 10 10 10 10 10 10 10 10 10 9 9 9 9 8 8 8 8 8 8 8 7 7 6 6 6 6 6 6 6 6 6 6 6 6 6 6 6 5 5 5 5 5 5 5 5 4 3 2 2 2 2 2 2 2 2 2 2
11 11 11 10 10 10 10 10 10 10 10 10 10 9 9 9 9 9 8 8 8 8 7 7 7 7 6 6 6 6 6 6 6 6 6 6 6 6 6 6 6 6 5 5 5 4 5 5 5 5 4 3 3 3 3 3 3 3 2 2 2 2 2
11 10 10 10 10 10 10 10 10 10 10 10 9 9 9 9 8 8 8 7 7 7 7 6 6 6 6 6 6 6 5 5 6 6 6 6 6 6 6 5 5 5 5 5 4 5 5 5 4 4 4 4 4 4 4 3 3 2 2 2 2 2 2
Height
3157 3158 3160 3161 3162 3163 3163 3164 3164 3164 3165 3165 3166 3167 3167 3168 3169 3170 3170 3171 3171 3171 3172 3172 3173 3174 3175 3176 3176 3177 3177 3177 3177 3178 3178 3178 3178 3178 3177 3177 3176 3175 3174 3173 3172 3172 3172 3171 3171 3171 3170 3170 3169 3168 3168 3167 3167 3167 3166 3166 3166 3165 3165
3156 3157 3159 3161 3161 3162 3163 3163 3164 3165 3165 3166 3166 3167 3167 3168 3168 3168 3169 3170 3170 3170 3171 3171 3172 3173 3173 3174 3174 3175 3175 3176 3176 3176 3176 3176 3176 3176 3175 3174 3174 3173 3173 3171 3171 3171 3171 3171 3171 3170 3169 3169 3168 3167 3166 3166 3166 3165 3164 3164 3163 3163 3163
3155 3156 3158 3160 3161 3162 3162 3163 3164 3164 3165 3166 3166 3166 3167 3167 3167 3167 3168 3169 3169 3169 3170 3170 3171 3171 3172 3172 3173 3173 3174 3174 3175 3175 3175 3174 3174 3173 3173 3173 3173 3172 3171 3171 3170 3171 3171 3170 3169 3168 3167 3167 3167 3166 3165 3164 3163 3163 3163 3162 3162 3161 3160
3154 3156 3157 3158 3160 3161 3162 3163 3163 3164 3165 3165 3166 3166 3166 3166 3167 3167 3167 3168 3168 3169 3169 3170 3170 3171 3171 3172 3172 3172 3173 3173 3173 3173 3173 3173 3172 3172 3172 3172 3171 3171 3170 3170 3170 3170 3169 3168 3167 3166 3166 3166 3165 3164 3163 3163 3162 3161 3161 3160 3160 3159 3158
3153 3155 3156 3158 3159 3160 3161 3162 3163 3164 3165 3165 3165 3166 3166 3166 3166 3166 3167 3168 3168 3169 3169 3170 3170 3171 3171 3171 3171 3171 3172 3172 3172 3172 3172 3172 3172 3172 3172 3171 3170 3170 3170 3170 3169 3168 3167 3166 3165 3164 3164 3164 3163 3162 3161 3161 3160 3159 3158 3158 3157 3157 3156
3153 3154 3156 3157 3159 3160 3161 3162 3163 3164 3164 3165 3166 3166 3166 3166 3166 3166 3167 3168 3168 3168 3169 3170 3170 3170 3171 3171 3171 3171 3171 3171 3172 3172 3172 3172 3172 3172 3171 3171 3170 3169 3169 3168 3167 3166 3165 3165 3164 3163 3162 3161 3160 3159 3159 3159 3158 3157 3156 3155 3155 3154 3153
3153 3154 3156 3157 3158 3159 3160 3162 3163 3164 3164 3165 3166 3166 3166 3166 3166 3167 3167 3168 3168 3168 3169 3170 3170 3170 3170 3171 3171 3171 3171 3171 3172 3172 3172 3172 3172 3172 3171 3170 3169 3168 3167 3166 3166 3165 3164 3163 3162 3161 3160 3160 3159 3158 3158 3157 3156 3155 3154 3153 3152 3151 3151
3153 3154 3155 3156 3157 3159 3160 3161 3162 3163 3164 3165 3166 3166 3166 3167 3167 3167 3167 3168 3168 3169 3170 3170 3170 3171 3171 3171 3171 3171 3172 3172 3173 3173 3173 3172 3172 3171 3170 3169 3168 3167 3166 3166 3165 3164 3163 3162 3161 3160 3159 3158 3157 3157 3156 3155 3154 3153 3152 3151 3150 3149 3148
3152 3153 3154 3155 3157 3158 3159 3160 3161 3162 3164 3165 3165 3166 3166 3167 3167 3168 3168 3168 3169 3170 3170 3170 3171 3171 3172 3172 3172 3172 3172 3173 3173 3173 3172 3172 3171 3170 3170 3169 3168 3167 3166 3165 3164 3163 3162 3161 3160 3159 3158 3157 3156 3155 3154 3153 3152 3151 3150 3150 3148 3147 3146
3151 3152 3153 3155 3156 3157 3159 3160 3161 3162 3163 3164 3165 3166 3167 3167 3168 3168 3168 3169 3169 3170 3170 3171 3171 3172 3172 3172 3172 3172 3173 3173 3173 3173 3172 3171 3171 3170 3169 3168 3167 3166 3165 3164 3163 3162 3161 3160 3159 3158 3157 3156 3154 3153 3152 3151 3150 3149 3148 3147 3146 3145 3144
3151 3152 3153 3154 3155 3157 3158 3159 3160 3162 3163 3164 3165 3166 3167 3168 3168 3168 3169 3169 3170 3170 3171 3171 3172 3172 3172 3172 3172 3172 3173 3173 3172 3172 3172 3171 3171 3170 3169 3168 3167 3166 3165 3164 3163 3161 3160 3159 3158 3156 3155 3154 3153 3152 3151 3149 3148 3147 3146 3145 3144 3143 3142
3150 3151 3152 3153 3155 3156 3158 3159 3160 3161 3163 3164 3165 3166 3167 3167 3168 3168 3169 3169 3170 3171 3171 3172 3172 3172 3172 3172 3172 3173 3173 3173 3172 3172 3172 3171 3170 3170 3169 3168 3166 3165 3164 3163 3161 3160 3158 3157 3156 3154 3153 3152 3151 3150 3149 3147 3146 3144 3143 3142 3141 3140 3139
3149 3150 3151 3152 3154 3155 3157 3158 3159 3161 3162 3164 3165 3165 3166 3167 3167 3168 3169 3169 3170 3171 3171 3172 3172 3173 3173 3173 3173 3173 3173 3173 3172 3172 3171 3170 3169 3169 3168 3166 3165 3164 3162 3161 3160 3158 3157 3155 3154 3152 3151 3150 3149 3147 3146 3145 3143 3142 3140 3139 3137 3136 3135
3147 3148 3149 3151 3153 3155 3156 3157 3158 3159 3161 3163 3164 3165 3165 3166 3167 3168 3169 3169 3170 3171 3171 3172 3172 3173 3173 3173 3172 3172 3172 3172 3171 3171 3170 3169 3168 3167 3166 3165 3164 3163 3162 3160 3159 3157 3156 3154 3152 3151 3149 3148 3146 3145 3143 3142 3140 3138 3137 3136 3134 3133 3132
3146 3147 3148 3150 3152 3154 3156 3157 3157 3158 3160 3162 3163 3164 3164 3165 3166 3167 3168 3169 3170 3170 3171 3172 3172 3172 3172 3172 3171 3171 3171 3170 3170 3169 3169 3168 3167 3166 3165 3164 3163 3162 3160 3159 3157 3155 3154 3152 3150 3148 3147 3145 3144 3142 3141 3139 3137 3136 3135 3133 3132 3130 3130
3147 3147 3148 3150 3152 3154 3155 3156 3157 3157 3159 3161 3162 3162 3163 3163 3165 3166 3167 3168 3169 3170 3170 3171 3171 3171 3171 3170 3170 3170 3169 3169 3168 3168 3167 3166 3165 3164 3163 3162 3161 3160 3158 3157 3155 3153 3151 3149 3147 3146 3144 3143 3141 3140 3138 3136 3135 3133 3132 3131 3130 3128 3127
3147 3148 3149 3150 3151 3153 3154 3155 3156 3157 3158 3159 3160 3160 3161 3162 3163 3164 3166 3167 3168 3169 3169 3169 3169 3169 3169 3168 3168 3168 3168 3168 3167 3166 3165 3164 3163 3162 3161 3160 3159 3157 3156 3154 3152 3150 3148 3147 3145 3143 3142 3140 3139 3137 3136 3134 3132 3130 3129 3128 3127 3126 3124
3148 3149 3149 3150 3151 3152 3153 3154 3155 3156 3157 3159 3159 3160 3161 3162 3162 3163 3164 3165 3166 3167 3167 3167 3167 3167 3166 3166 3166 3166 3166 3165 3164 3164 3163 3162 3161 3160 3159 3158 3156 3155 3153 3151 3149 3147 3145 3144 3142 3141 3139 3137 3136 3134 3133 3131 3129 3127 3126 3125 3124 3123 3121
3149 3149 3150 3151 3151 3151 3152 3153 3155 3156 3157 3159 3160 3161 3162 3162 3162 3163 3163 3164 3165 3165 3165 3165 3165 3164 3163 3163 3163 3163 3163 3162 3162 3161 3160 3159 3158 3157 3156 3155 3153 3151 3149 3147 3146 3144 3142 3141 3139 3138 3136 3134 3133 3131 3130 3128 3126 3124 3123 3121 3120 3119 3118
3149 3149 3150 3150 3150 3151 3152 3154 3156 3157 3158 3159 3160 3160 3161 3162 3162 3162 3163 3163 3163 3163 3163 3163 3162 3162 3161 3161 3160 3161 3160 3160 3160 3159 3157 3156 3155 3154 3153 3151 3150 3148 3146 3144 3143 3141 3140 3138 3137 3135 3133 3131 3130 3128 3126 3124 3122 3121 3119 3118 3117 3116 3114
3148 3149 3149 3149 3150 3151 3153 3155 3156 3157 3158 3158 3159 3159 3160 3160 3161 3161 3161 3161 3161 3161 3161 3160 3160 3160 3159 3159 3159 3159 3158 3158 3158 3157 3155 3154 3152 3151 3150 3149 3147 3146 3144 3142 3140 3139 3137 3136 3134 3132 3130 3128 3127 3125 3123 3121 3119 3118 3116 3115 3114 3113 3111
3148 3148 3148 3149 3150 3152 3154 3155 3156 3157 3158 3159 3159 3159 3159 3160 3160 3160 3160 3160 3160 3160 3159 3159 3158 3157 3157 3157 3157 3157 3157 3156 3156 3155 3154 3152 3151 3149 3148 3146 3145 3143 3141 3140 3138 3137 3135 3133 3131 3130 3128 3126 3124 3123 3121 3119 3117 3115 3114 3113 3111 3110 3108
3148 3148 3147 3148 3150 3152 3153 3155 3156 3157 3158 3159 3159 3159 3160 3160 3160 3160 3160 3159 3159 3158 3158 3158 3156 3156 3156 3156 3156 3157 3157 3157 3155 3154 3153 3151 3149 3147 3146 3144 3142 3140 3139 3137 3136 3134 3133 3131 3129 3127 3126 3124 3122 3120 3119 3117 3115 3113 3111 3110 3109 3107 3105
3147 3147 3147 3148 3150 3151 3153 3154 3155 3157 3158 3159 3159 3160 3160 3160 3160 3160 3159 3158 3158 3157 3157 3156 3156 3156 3156 3155 3155 3156 3156 3155 3154 3153 3151 3149 3147 3145 3143 3141 3139 3138 3136 3135 3134 3132 3131 3129 3128 3126 3124 3122 3120 3118 3116 3115 3112 3110 3109 3107 3106 3104 3102
3147 3147 3147 3148 3150 3151 3152 3154 3155 3156 3157 3158 3158 3159 3159 3159 3159 3159 3158 3158 3157 3156 3156 3155 3155 3155 3155 3154 3154 3153 3152 3151 3151 3150 3149 3146 3144 3142 3140 3138 3137 3135 3134 3133 3131 3130 3129 3127 3126 3124 3121 3119 3118 3116 3114 3112 3110 3108 3106 3105 3103 3101 3099
3147 3148 3149 3149 3150 3152 3153 3154 3155 3156 3157 3157 3158 3158 3158 3158 3158 3158 3157 3157 3156 3155 3154 3153 3153 3153 3152 3152 3152 3151 3150 3149 3148 3147 3145 3143 3141 3139 3137 3136 3135 3133 3132 3131 3129 3128 3126 3125 3123 3122 3120 3118 3116 3114 3112 3110 3108 3106 3104 3102 3100 3097 3095
3147 3149 3149 3150 3151 3152 3153 3154 3155 3155 3156 3157 3157 3157 3157 3157 3157 3157 3156 3155 3155 3154 3153 3152 3152 3151 3150 3149 3149 3148 3148 3147 3145 3144 3143 3141 3139 3137 3135 3134 3132 3131 3130 3128 3127 3125 3124 3123 3121 3120 3118 3116 3114 3112 3110 3108 3105 3103 3101 3099 3097 3094 3091
3148 3149 3150 3150 3151 3152 3153 3154 3154 3155 3156 3156 3156 3156 3156 3156 3155 3155 3154 3154 3153 3152 3152 3151 3150 3149 3148 3147 3146 3146 3145 3143 3142 3141 3140 3138 3136 3134 3133 3132 3130 3129 3128 3126 3124 3123 3122 3121 3120 3118 3116 3115 3113 3110 3108 3106 3103 3100 3098 3095 3093 3090 3087
3148 3148 3149 3150 3151 3152 3153 3153 3154 3155 3155 3155 3155 3155 3155 3154 3154 3154 3153 3152 3151 3151 3150 3150 3149 3147 3146 3145 3145 3144 3142 3140 3139 3138 3137 3136 3134 3133 3132 3130 3128 3127 3125 3124 3123 3122 3120 3119 3118 3116 3115 3113 3111 3108 3106 3103 3100 3097 3094 3091 3088 3086 3082
3147 3148 3148 3149 3150 3151 3152 3153 3154 3154 3155 3155 3155 3154 3154 3153 3153 3152 3152 3151 3150 3150 3149 3148 3147 3146 3145 3144 3143 3141 3140 3138 3137 3136 3135 3134 3133 3132 3130 3128 3127 3125 3124 3123 3122 3120 3119 3117 3116 3114 3113 3111 3108 3106 3103 3100 3097 3094 3090 3087 3084 3081 3078
3146 3147 3148 3148 3149 3150 3152 3153 3154 3154 3154 3154 3153 3153 3152 3152 3151 3151 3150 3150 3149 3148 3147 3146 3146 3145 3144 3142 3141 3139 3138 3138 3137 3135 3134 3133 3132 3130 3128 3127 3125 3124 3123 3122 3120 3119 3118 3116 3114 3112 3110 3108 3105 3103 3100 3097 3094 3090 3087 3083 3080 3077 3074
3146 3146 3146 3147 3148 3149 3151 3152 3152 3153 3153 3152 3152 3151 3151 3150 3150 3150 3149 3148 3148 3147 3146 3145 3145 3143 3142 3141 3140 3139 3137 3136 3135 3134 3133 3131 3130 3128 3127 3125 3124 3123 3122 3121 3119 3118 3116 3114 3112 3110 3108 3105 3102 3100 3097 3094 3090 3086 3083 3080 3077 3074 3071
3146 3146 3146 3147 3147 3148 3150 3151 3151 3151 3151 3151 3150 3150 3149 3149 3149 3148 3148 3147 3147 3146 3145 3144 3143 3142 3140 3139 3138 3137 3136 3135 3133 3132 3130 3129 3127 3126 3125 3124 3123 3121 3120 3119 3118 3116 3114 3112 3109 3108 3106 3103 3100 3096 3093 3090 3086 3083 3080 3077 3075 3072 3068
3146 3146 3147 3147 3148 3149 3150 3150 3150 3150 3150 3150 3149 3149 3149 3148 3148 3148 3147 3147 3146 3145 3143 3142 3141 3140 3138 3137 3136 3135 3133 3132 3131 3130 3128 3127 3126 3125 3124 3123 3121 3120 3119 3117 3116 3114 3112 3110 3107 3106 3103 3100 3095 3092 3089 3086 3083 3080 3077 3074 3071 3068 3064
3146 3146 3147 3147 3148 3149 3149 3149 3149 3149 3149 3148 3148 3148 3148 3147 3146 3146 3145 3144 3143 3141 3140 3139 3138 3137 3136 3135 3134 3132 3131 3130 3129 3128 3127 3126 3125 3124 3122 3121 3120 3118 3117 3115 3113 3111 3109 3107 3106 3103 3100 3096 3092 3088 3085 3083 3081 3078 3074 3071 3067 3063 3060
3145 3146 3146 3146 3147 3147 3147 3147 3147 3146 3146 3146 3145 3145 3145 3145 3144 3143 3142 3141 3141 3140 3138 3137 3136 3136 3135 3134 3132 3131 3130 3129 3128 3127 3126 3125 3124 3122 3121 3120 3119 3117 3115 3113 3111 3109 3107 3105 3103 3100 3096 3093 3090 3087 3083 3080 3077 3075 3071 3068 3064 3061 3057
3144 3145 3145 3145 3145 3145 3145 3145 3145 3144 3144 3143 3143 3143 3143 3143 3143 3142 3142 3141 3140 3139 3137 3136 3135 3134 3133 3132 3131 3130 3129 3128 3127 3126 3125 3124 3123 3121 3120 3118 3117 3115 3113 3111 3109 3108 3106 3104 3101 3097 3094 3091 3089 3086 3083 3079 3075 3072 3068 3065 3062 3058 3054
3143 3144 3144 3144 3144 3144 3144 3144 3144 3144 3143 3143 3143 3142 3142 3142 3142 3141 3140 3139 3138 3137 3136 3135 3133 3132 3132 3131 3129 3129 3128 3127 3126 3125 3124 3123 3122 3121 3119 3117 3115 3113 3111 3109 3108 3106 3105 3102 3099 3096 3093 3090 3087 3084 3081 3078 3073 3070 3066 3063 3059 3054 3050
Wind_Speed
11 10 10 10 9 7 6 6 6 5 5 5 5 4 2 1 0 2 3 5 6 6 5 5 6 6 6 7 8 9 10 10 11 11 12 13 13 13 14 13 13 12 13 15 16 16 16 17 17 16 15 14 13 13 14 15 15 16 16 16 16 16 17
12 11 9 10 10 8 7 7 7 5 4 4 4 2 1 2 4 5 5 7 7 7 7 7 8 8 8 9 9 10 11 11 11 12 12 12 11 11 12 12 11 12 13 16 17 16 16 16 16 15 15 14 14 14 14 14 14 15 16 16 17 17 18
11 10 9 9 10 9 8 7 6 5 4 3 2 1 2 4 5 5 5 6 7 7 6 7 7 8 9 9 9 9 9 10 10 10 10 11 10 10 10 10 10 11 13 15 15 15 15 15 14 14 15 14 13 13 13 14 15 15 15 15 16 17 18
10 11 10 10 11 10 8 7 6 5 4 3 1 1 2 3 4 4 4 4 5 4 4 4 5 6 6 6 6 6 6 6 6 6 7 8 8 9 9 10 11 12 13 13 13 13 13 13 14 15 15 13 12 12 13 13 14 14 15 15 15 16 17
10 12 12 11 11 10 8 7 6 5 4 3 2 1 0 1 2 2 2 2 2 1 1 1 2 3 3 3 3 3 2 3 4 4 5 6 7 8 9 10 12 12 11 11 11 11 12 12 14 15 15 14 14 15 15 14 14 15 15 16 16 16 17
10 11 12 11 11 10 9 8 7 5 4 4 3 2 2 1 1 1 1 0 1 1 2 2 2 1 1 1 1 2 2 2 3 3 4 5 6 7 7 8 10 10 10 10 10 10 11 12 13 15 15 15 16 16 16 15 15 16 16 17 17 17 18
8 10 11 11 10 10 9 8 7 6 5 5 5 4 3 3 2 1 2 2 3 3 3 4 4 4 4 3 2 3 4 4 4 4 5 5 6 7 8 8 9 9 9 9 10 11 11 12 13 14 14 14 15 15 15 15 15 16 16 17 17 18 19
8 9 11 11 10 10 9 7 7 7 7 7 7 5 5 4 3 2 3 4 4 4 4 5 5 6 6 5 4 5 6 7 6 6 7 7 9 10 10 10 10 9 9 10 10 11 11 12 13 13 13 13 14 14 15 15 15 15 16 17 18 19 19
9 9 11 11 11 10 8 6 7 8 9 9 8 6 5 4 3 3 4 5 5 5 5 6 6 6 7 6 6 7 8 8 7 8 9 10 12 13 12 12 11 11 11 12 12 12 12 12 13 13 13 13 14 15 16 16 16 16 17 18 19 19 19
9 9 11 11 11 10 7 7 7 8 9 10 8 6 5 5 3 4 6 6 6 5 6 6 6 7 8 8 9 8 7 6 6 8 10 12 13 14 14 15 14 13 13 13 13 14 14 14 14 14 15 15 15 16 17 17 17 17 18 18 19 19 19
7 8 10 10 10 8 6 7 7 8 10 10 9 7 6 5 4 5 6 6 6 6 6 6 7 8 8 9 9 8 7 6 6 8 10 12 13 14 15 15 16 15 15 15 15 16 16 16 15 15 16 16 16 17 17 18 18 19 19 19 19 19 19
6 7 8 8 8 7 8 8 8 9 10 10 9 7 7 6 4 5 6 6 7 6 5 6 7 7 8 9 9 9 8 8 8 9 11 13 13 14 15 17 18 18 18 18 18 18 18 18 17 17 16 16 17 18 18 19 19 20 21 21 20 19 19
4 5 6 7 7 9 10 10 10 11 11 11 9 7 7 6 5 6 7 7 7 6 5 5 6 6 7 7 8 8 9 9 9 10 12 14 14 15 16 18 20 20 20 20 20 19 19 19 18 18 17 17 18 19 19 19 20 21 21 21 21 21 21
2 3 5 6 8 10 12 12 12 13 12 10 9 7 7 6 6 7 7 7 7 6 5 4 4 5 6 6 7 7 8 9 10 11 13 15 15 16 17 18 20 21 21 21 21 21 20 20 19 18 18 18 19 19 20 20 21 21 22 22 22 23 22
1 3 4 6 9 11 13 13 12 12 12 10 9 8 7 7 7 7 7 6 5 4 2 2 3 4 4 5 6 7 9 10 11 12 14 15 17 18 19 20 21 21 22 22 22 22 22 21 19 18 17 18 19 19 20 20 21 22 22 22 23 23 22
3 4 4 5 8 12 14 14 12 11 11 11 9 8 7 7 7 8 7 5 3 1 1 3 4 6 6 7 7 9 10 12 12 14 15 17 18 20 21 21 22 23 23 24 24 24 23 21 19 18 17 18 18 18 19 20 21 22 22 22 22 23 22
4 5 5 5 7 11 14 15 14 12 11 12 11 9 8 7 7 7 7 5 3 2 3 5 8 9 10 11 10 11 12 14 15 16 17 18 19 21 23 23 23 24 25 25 25 25 22 19 18 17 17 18 18 19 20 21 22 22 22 22 22 22 23
5 6 6 6 7 11 14 15 15 13 11 11 10 9 9 8 7 7 6 5 4 4 5 7 10 12 14 15 14 14 14 15 16 17 18 20 21 23 24 25 25 26 27 27 27 24 21 19 18 19 19 20 20 20 21 22 23 23 23 23 23 23 23
6 6 6 6 7 11 14 14 14 12 9 7 6 5 6 6 6 6 6 6 5 6 7 9 12 14 16 18 18 18 17 18 18 17 18 21 23 23 25 26 27 28 29 29 27 24 21 20 21 21 22 22 21 21 21 22 23 24 24 24 24 24 24
6 5 7 8 8 11 12 12 12 11 8 6 5 6 5 4 4 5 6 7 7 8 9 11 13 14 16 19 19 19 20 21 19 18 19 22 23 24 27 28 29 30 31 29 27 24 22 22 23 23 23 23 22 22 22 24 25 25 25 25 24 24 24
4 4 6 7 8 9 10 11 11 10 9 7 7 9 8 7 8 9 9 10 10 11 13 14 15 16 18 18 18 19 21 21 20 20 21 22 23 26 28 30 30 31 31 28 26 24 23 24 24 24 24 24 24 24 24 25 25 25 25 24 23 23 22
1 3 5 5 6 7 9 10 10 10 9 8 8 10 11 10 11 12 12 12 12 13 14 15 17 19 20 18 18 19 21 21 20 21 22 22 24 27 29 30 31 32 30 27 25 24 24 24 24 24 24 24 24 24 24 24 24 24 23 23 22 22 22
2 2 4 6 7 8 9 9 9 9 8 8 9 10 10 10 10 10 10 11 12 12 13 15 19 22 22 21 21 22 23 22 19 19 21 23 25 28 29 31 31 30 27 25 24 24 24 23 23 24 24 24 24 23 23 23 23 24 23 23 23 23 24
7 6 5 5 6 8 8 8 8 8 8 8 8 7 6 7 7 7 8 10 12 13 14 17 19 21 22 22 23 23 23 20 18 19 23 25 27 29 30 31 30 28 26 25 24 24 23 23 23 23 23 23 22 22 22 22 23 24 24 24 25 26 27
9 8 6 5 5 6 7 7 6 7 7 6 6 5 5 5 5 6 7 9 12 14 17 18 19 19 19 21 23 23 21 18 18 22 26 27 28 29 30 29 27 26 25 24 24 23 23 22 22 22 22 21 21 22 22 22 23 25 25 26 28 29 30
6 6 5 5 6 6 7 6 6 6 6 5 5 5 6 7 7 8 9 11 13 16 18 19 19 19 21 23 25 24 21 19 20 24 27 28 29 29 28 26 25 24 24 23 23 23 22 22 21 20 20 21 21 22 23 24 25 26 26 28 30 31 33
6 6 6 6 6 7 7 6 5 4 3 3 4 5 7 8 10 11 12 12 13 16 18 18 19 21 23 24 24 22 20 20 23 26 27 27 27 26 25 24 24 24 23 23 23 23 22 21 20 20 20 21 22 24 25 26 27 28 29 30 31 33 35
5 5 5 5 5 5 5 3 3 3 3 3 4 6 8 9 11 13 13 13 14 16 17 18 19 21 21 21 21 21 21 22 24 26 25 24 24 23 23 23 23 23 22 22 22 22 22 21 20 20 21 22 24 25 26 28 29 30 31 32 34 36 37
5 4 2 2 3 2 1 1 2 3 4 4 5 6 7 8 10 12 13 13 14 15 16 16 17 18 19 20 21 21 21 22 23 23 22 21 22 22 22 22 22 22 21 21 21 21 21 21 21 21 22 23 24 25 26 27 29 31 34 35 37 38 38
2 1 2 4 5 4 3 4 5 5 5 6 7 9 10 11 12 13 12 12 13 14 15 15 15 16 18 20 20 19 19 19 20 20 20 21 21 21 20 20 20 20 20 20 20 20 21 22 22 22 22 23 23 24 26 28 30 33 35 36 37 36 34
1 2 4 6 7 7 7 8 8 7 7 10 12 13 13 14 14 13 11 11 12 13 13 14 14 16 17 17 16 15 16 16 17 18 19 19 19 18 18 18 18 19 19 19 20 20 21 22 22 22 22 23 24 26 27 29 31 31 31 30 30 29 29
3 4 6 7 8 9 9 8 8 8 10 12 13 12 13 13 13 12 12 12 12 12 12 13 13 14 14 13 12 13 14 15 15 16 17 17 16 16 16 17 18 18 18 18 19 20 21 21 21 21 21 23 26 27 27 27 27 26 25 25 26 27 28
5 6 6 6 7 7 7 7 8 10 12 12 11 11 12 12 12 11 11 11 11 11 11 11 11 11 12 11 12 13 14 14 15 16 16 16 16 16 17 18 18 18 18 18 19 19 19 19 19 20 22 25 28 28 27 25 24 24 24 25 26 26 27
5 4 3 3 3 4 5 7 10 11 12 11 11 11 11 10 10 10 11 11 10 9 9 9 10 11 11 12 13 14 15 15 16 16 16 15 16 17 18 18 17 17 18 18 19 18 18 18 19 21 25 29 30 29 26 23 23 24 26 27 28 28 28
4 3 2 1 2 4 6 8 10 10 11 11 11 10 9 8 8 9 9 9 8 9 9 10 11 12 13 13 14 15 16 16 16 16 15 15 17 17 17 16 16 17 18 18 18 18 18 19 20 25 29 31 30 28 26 24 24 26 27 28 29 29 30
4 3 2 3 4 5 7 8 9 10 10 10 10 9 8 7 7 8 8 8 8 9 10 11 12 13 14 15 15 16 16 16 15 15 15 16 17 17 16 16 16 16 17 17 17 18 19 20 23 27 30 29 26 25 25 26 26 27 27 28 29 30 32
5 4 3 3 5 6 7 8 9 9 10 10 10 9 8 8 8 8 8 8 8 9 10 12 14 14 14 14 15 15 16 15 15 15 15 15 15 14 15 15 16 16 16 16 17 18 18 19 23 26 27 26 24 24 24 26 28 28 28 29 30 31 32
5 4 3 4 5 6 7 8 8 8 8 8 8 8 9 10 9 8 8 8 8 9 10 12 14 15 14 14 14 15 15 14 14 14 14 13 12 12 12 13 15 16 16 16 17 17 17 18 20 22 23 24 26 26 26 27 29 29 28 29 31 32 31
Wind_Direction
211 197 184 181 180 177 171 163 168 158 129 128 136 143 155 145 294 284 276 271 269 266 259 252 247 247 252 256 259 259 259 263 268 269 270 270 270 270 270 269 269 272 276 278 280 282 286 290 294 297 296 292 281 269 262 258 257 260 263 266 268 268 269
208 200 185 179 177 175 167 164 168 168 156 147 147 165 276 315 309 297 289 281 277 276 270 264 261 262 267 271 277 278 279 280 279 277 277 274 270 264 264 269 277 282 279 277 282 288 290 292 295 295 290 283 278 277 279 278 273 267 262 261 262 264 265
205 199 186 180 176 176 174 168 170 175 167 150 156 271 313 311 303 296 292 286 281 279 275 270 269 270 274 280 283 282 280 277 273 272 273 272 273 274 280 288 289 284 278 278 284 290 294 297 296 289 284 284 289 290 285 279 276 273 270 267 265 264 266
190 191 187 184 180 181 180 172 168 169 155 140 160 283 315 304 299 297 297 291 286 285 281 277 271 270 275 279 279 274 271 271 270 272 274 280 290 297 297 294 285 279 280 285 292 297 299 298 292 288 292 303 308 298 285 280 281 282 279 276 271 267 264
176 189 194 191 187 183 176 172 168 159 147 147 167 164 327 299 306 320 317 303 290 282 250 252 251 257 267 265 275 284 285 292 292 293 299 300 303 304 298 291 288 291 297 300 299 297 294 293 294 297 303 310 306 296 293 294 293 289 285 281 277 272 269
171 186 191 187 185 177 169 173 167 153 153 160 164 148 119 65 17 20 23 107 138 129 131 124 119 116 98 68 3 2 7 359 341 332 334 331 327 327 322 312 309 311 312 311 307 300 297 299 302 302 303 302 298 296 298 298 293 290 287 284 282 281 279
170 180 180 178 179 175 175 180 170 163 172 167 158 145 116 85 72 95 108 114 116 114 112 103 96 91 78 65 51 51 52 42 31 28 21 9 2 360 355 347 338 330 325 321 318 316 313 312 309 306 306 303 299 298 296 293 289 289 289 289 290 290 287
166 179 182 181 180 180 185 184 174 176 178 164 156 148 122 98 94 113 111 108 110 105 98 91 86 83 81 80 83 85 78 67 56 50 43 32 24 19 13 7 357 348 344 339 335 330 323 316 313 311 310 306 303 300 298 296 295 296 297 297 295 293 291
165 177 186 188 187 190 188 173 172 178 171 157 151 144 122 102 95 104 105 103 102 96 88 84 83 83 83 80 74 73 73 67 55 48 41 35 30 23 17 12 5 359 357 354 348 342 332 322 317 313 309 306 303 301 301 302 302 301 298 295 293 292 291
171 180 189 195 198 200 185 160 166 170 161 149 141 133 116 103 101 107 107 103 100 96 90 85 79 75 72 67 63 63 63 55 42 37 32 28 24 18 14 12 9 5 1 355 348 343 337 328 319 312 308 306 305 305 305 304 302 299 294 290 288 287 286
169 184 197 203 205 200 170 156 166 163 154 145 134 126 115 109 112 114 110 106 100 93 90 86 76 70 66 63 60 54 46 37 31 25 16 12 11 8 8 7 5 3 359 353 346 340 335 329 321 313 308 306 305 304 303 301 300 297 293 290 287 284 280
165 186 199 199 194 176 149 153 167 161 152 142 132 125 114 108 114 119 111 105 100 91 84 83 76 70 65 58 52 43 32 25 20 11 1 360 -0 358 357 357 357 355 351 348 343 338 334 329 323 315 308 304 302 300 299 297 296 295 293 293 291 288 284
155 185 196 189 179 165 155 160 166 162 154 142 135 127 113 108 112 116 112 103 102 97 85 82 76 68 60 49 39 30 21 15 7 0 357 357 354 351 351 351 350 349 345 343 341 337 333 327 321 314 307 302 299 297 296 295 294 294 294 296 296 295 292
126 175 190 187 175 161 160 166 166 162 155 144 139 129 112 111 113 117 117 109 106 105 91 78 68 57 47 35 24 13 7 0 354 353 354 352 348 346 346 345 345 344 341 340 338 334 330 324 318 311 305 301 299 298 298 298 298 298 298 298 297 294 293
166 171 165 176 172 157 158 165 164 161 155 146 142 132 117 117 121 127 131 123 118 118 91 52 31 23 14 6 358 351 350 348 345 345 344 344 343 342 341 340 341 340 337 336 334 331 328 322 314 308 303 301 300 300 300 299 298 297 296 296 295 294 295
196 176 144 156 165 157 155 157 157 160 156 146 142 139 135 137 139 143 147 145 148 162 337 326 325 327 325 325 328 329 331 330 331 334 335 337 338 338 336 335 335 336 336 334 332 330 326 321 314 308 303 301 300 299 299 298 297 295 295 295 296 297 298
191 169 140 138 153 157 156 153 154 161 161 152 151 154 154 153 155 160 165 175 202 262 302 305 306 306 304 306 308 311 313 315 319 324 328 329 331 333 333 332 332 334 335 333 331 329 325 321 315 310 306 303 302 302 301 299 298 297 297 298 298 298 298
170 156 143 136 147 159 160 157 159 166 167 161 160 163 163 165 172 179 187 200 224 256 283 295 298 300 301 300 301 303 305 306 311 316 320 322 323 327 330 330 331 332 332 330 328 327 325 321 317 313 310 308 306 305 303 301 300 300 300 300 301 301 302
157 151 134 123 142 164 167 163 161 164 167 161 157 159 160 168 183 195 209 226 249 269 284 293 295 296 296 294 295 299 299 300 304 307 313 317 319 323 328 329 329 330 330 328 326 326 325 322 318 315 312 310 308 307 305 303 302 302 303 304 305 305 304
160 138 124 133 154 168 168 162 155 155 158 155 160 171 167 173 199 214 232 249 266 276 281 286 287 289 290 289 291 293 293 298 303 303 308 314 316 321 326 327 327 327 326 325 324 324 323 320 317 314 312 310 310 309 307 306 304 305 306 308 308 307 306
161 107 119 157 174 167 159 155 153 158 160 159 173 187 190 200 218 226 235 248 260 269 275 281 283 284 287 289 292 294 297 303 306 302 304 310 314 319 323 323 323 323 322 322 322 321 320 319 316 313 312 311 310 309 308 307 306 307 309 310 311 311 311
171 90 125 169 178 156 148 150 156 164 169 167 171 183 194 209 226 235 245 256 266 273 278 282 283 284 291 300 302 300 300 300 300 302 306 308 311 316 318 318 319 319 319 319 319 319 318 317 314 312 311 310 309 308 308 308 308 309 311 312 313 312 311
219 166 156 172 171 156 152 158 163 167 169 164 161 171 191 211 227 241 253 261 267 274 280 284 288 295 306 315 313 308 302 294 290 300 307 307 309 312 314 315 316 317 316 317 318 317 316 314 311 310 310 309 309 310 310 310 310 310 311 312 311 310 309
214 208 193 192 185 174 171 170 169 172 176 174 171 176 193 210 223 238 251 257 262 270 279 286 295 305 315 318 316 313 307 294 288 299 306 306 308 310 311 313 314 315 315 316 317 316 314 313 311 310 310 310 310 310 309 309 308 307 308 309 309 309 309
212 208 199 194 185 176 176 177 177 183 188 193 203 217 236 247 256 269 277 278 278 281 286 291 298 304 307 307 307 307 302 295 295 301 303 304 307 308 309 311 312 313 315 316 315 314 313 312 311 310 309 309 307 306 305 305 304 304 305 306 306 306 306
187 187 181 178 172 165 168 178 187 193 196 210 236 263 280 286 293 297 297 296 294 293 294 294 295 294 291 291 295 296 294 293 297 298 300 303 306 307 308 309 311 313 315 314 313 313 312 312 310 308 307 306 304 303 303 302 301 300 300 301 301 302 303
143 158 152 146 152 159 166 178 191 201 217 249 283 308 315 312 307 301 294 291 292 291 289 286 284 283 284 286 289 289 287 289 293 295 299 303 304 305 308 310 312 313 313 313 313 313 313 311 309 308 307 305 304 303 302 302 301 299 297 297 298 301 303
126 146 142 133 141 155 167 190 223 249 276 302 316 321 320 317 312 305 294 282 277 279 279 277 276 278 282 286 286 284 285 289 293 297 301 304 305 307 310 311 311 312 312 313 313 313 313 312 310 310 309 308 307 305 303 302 301 300 300 301 303 304 304
115 135 163 189 192 188 192 253 293 299 294 295 300 304 305 301 299 300 293 275 267 271 274 274 274 278 282 283 282 284 289 294 298 301 304 305 305 305 306 307 308 310 312 312 312 313 313 313 314 314 312 310 307 305 305 305 306 306 306 306 306 305 305
91 135 232 240 247 249 255 282 299 295 282 280 279 277 278 278 281 289 289 275 268 270 272 276 278 278 277 278 282 290 297 300 303 304 303 302 301 301 302 305 308 310 310 311 312 314 316 316 316 314 312 310 310 311 312 312 311 308 307 306 306 308 309
340 288 258 252 252 252 259 276 283 279 284 291 287 277 273 274 279 284 282 277 274 274 276 280 279 275 276 282 292 300 302 301 300 297 295 297 300 301 304 307 308 310 310 311 314 316 316 314 313 314 317 319 319 319 317 314 311 309 309 311 314 316 316
256 264 264 256 250 252 259 267 271 279 293 298 292 281 273 273 279 283 282 280 278 274 273 273 273 277 286 296 303 303 298 296 294 294 298 304 307 309 310 311 311 311 310 312 314 314 312 312 315 321 326 327 326 323 320 317 315 316 318 319 320 319 318
231 251 261 255 249 250 257 268 281 290 292 291 286 279 276 278 281 280 275 272 268 264 266 270 278 292 302 306 306 302 298 300 303 308 314 317 317 316 315 312 311 310 310 312 312 311 311 316 322 326 328 329 329 328 325 322 321 321 321 321 320 320 319
221 231 241 254 256 250 258 275 284 285 284 283 281 278 276 275 272 264 260 261 264 268 276 289 303 311 312 311 311 310 310 314 318 321 323 320 317 315 311 309 309 309 309 311 310 311 316 320 322 325 329 333 333 330 326 324 324 324 324 323 323 324 324
204 207 216 262 266 259 266 276 280 281 281 282 281 279 278 274 269 268 273 280 288 297 305 313 319 320 318 319 320 318 318 321 323 322 321 318 314 311 308 308 310 310 310 311 313 318 321 320 322 329 336 339 338 334 330 328 327 326 325 323 324 324 325
190 210 243 267 275 279 282 284 287 288 290 291 292 294 293 286 281 283 288 294 299 306 313 318 320 321 322 322 320 317 317 320 320 318 316 314 311 309 307 309 311 310 310 313 318 321 319 320 329 339 344 345 344 340 334 331 330 329 327 325 324 325 325
204 226 253 270 280 287 287 288 291 292 295 301 303 300 294 287 284 284 286 293 301 311 319 321 321 322 324 322 318 316 317 318 316 313 310 309 308 306 307 309 311 312 314 318 320 318 318 326 338 345 346 346 345 341 336 333 333 332 331 330 330 329 328
220 239 262 278 283 286 286 288 288 290 295 299 295 287 283 284 286 292 299 308 315 319 322 321 321 323 324 321 316 314 313 311 308 306 306 305 304 305 307 309 312 316 319 320 318 318 324 335 343 345 344 342 340 339 338 337 335 334 335 337 336 334 334